Flag for Belgium Weather past 2 weeks in Kortrijk, Belgium

Now
75 °F

Passing clouds.


Feels Like: 77 °F
Forecast: 61 / 76 °F
Wind: 5 mph from Northeast

Location: Lille Airport

Current Time: Jul 24, 2014 at 11:02:26 AM

Latest Report: Jul 24, 2014 at 10:30 AM


Visibility: N/A

Pressure: 29.98 "Hg

Humidity: 65%

Dew point: 63 °F

Location of KortrijkLocation

Historic Weather in Kortrijk — Graph

°F

Kortrijk temperature yesterday

Maximum temperature yesterday: 84 °F (at 3:30 PM)
Minimum temperature yesterday: 61 °F (at 2:30 AM)
Average temperature yesterday: 74 °F

Past Weeks' High & Low Weather Summary

 TemperatureHumidityPressure
High91 °F (Jul 18, 2:30 PM)100% (Jul 9, 8:00 PM)30.18 "Hg (Jul 9, 8:00 PM)
Low55 °F (Jul 15, 1:30 AM)36% (Jul 18, 4:00 PM)29.74 "Hg (Jul 13, 5:30 PM)
Average68 °F79%29.97 "Hg
* Reported Jul 9 10:00 AM — Jul 24 10:00 AM, Kortrijk, Weather by CustomWeather, © 2014

Note: Actual official high and low records may vary slightly from our data, if they occured in-between our weather recording intervals... More about our weather records

Advertising

Kortrijk weather history for previous 24 hours

 ConditionsComfort  
Time TempWeatherWind HumidityBarometerVisibility
10:00 AM
Jul 24
73 °FPassing clouds.7 mph65%29.98 "HgN/A
9:30 AM72 °FPassing clouds.5 mph69%29.98 "HgN/A
9:00 AM72 °FSunny.6 mph69%29.98 "Hg10 mi
8:30 AM70 °FSunny.7 mph69%29.98 "Hg10 mi
7:30 AM68 °FSunny.8 mph73%29.98 "Hg10 mi
7:00 AM66 °FClear.8 mph78%29.95 "Hg10 mi
6:30 AM66 °FClear.8 mph73%29.95 "Hg10 mi
6:00 AM66 °FClear.7 mph73%29.95 "Hg10 mi
5:30 AM66 °FClear.8 mph73%29.95 "Hg10 mi
5:00 AM66 °FClear.8 mph73%29.95 "Hg10 mi
4:30 AM68 °FClear.8 mph69%29.95 "HgN/A
4:00 AM68 °FClear.8 mph69%29.98 "HgN/A
3:30 AM70 °FClear.8 mph64%29.98 "HgN/A
2:30 AM70 °FClear.8 mph69%29.98 "HgN/A
2:00 AM72 °FClear.8 mph65%29.98 "Hg10 mi
1:00 AM72 °FClear.8 mph69%29.98 "Hg10 mi
12:30 AM73 °FClear.9 mph65%29.98 "Hg10 mi
12:00 AM73 °FClear.8 mph65%29.98 "Hg10 mi
11:30 PM
Jul 23
75 °FClear.9 mph61%30.01 "Hg10 mi
11:00 PM75 °FClear.9 mph65%30.01 "Hg10 mi
10:30 PM77 °FSunny.9 mph61%29.98 "Hg10 mi
10:00 PM77 °FSunny.7 mph61%29.98 "Hg10 mi
9:30 PM79 °FSunny.7 mph58%29.98 "Hg10 mi
9:00 PM81 °FSunny.8 mph54%29.98 "Hg10 mi
8:30 PM82 °FPassing clouds.9 mph51%29.98 "HgN/A
8:00 PM82 °FPassing clouds.9 mph48%29.98 "HgN/A
7:00 PM82 °FSunny.12 mph48%29.98 "Hg10 mi
6:30 PM82 °FSunny.15 mph51%29.98 "Hg10 mi
6:00 PM82 °FPassing clouds.14 mph51%29.98 "HgN/A
5:30 PM84 °FSunny.13 mph48%29.98 "Hg10 mi
5:00 PM84 °FPassing clouds.13 mph48%29.98 "HgN/A
4:30 PM84 °FPassing clouds.10 mph48%29.98 "HgN/A
4:00 PM84 °FSunny.12 mph48%30.01 "Hg10 mi
3:30 PM84 °FPassing clouds.13 mph48%30.01 "HgN/A
3:00 PM82 °FScattered clouds.14 mph55%30.01 "HgN/A
1:07 PM81 °FScattered clouds.13 mph58%30.04 "HgN/A
12:00 PM79 °FPassing clouds.10 mph65%30.04 "HgN/A
11:30 AM79 °FPassing clouds.13 mph65%30.04 "HgN/A
11:00 AM77 °FSunny.9 mph65%30.04 "Hg10 mi
Weather by CustomWeather, © 2014

See weather overviewHow to use our weather pages